Flag for Canada Weather past 2 weeks in Cape Dorset, Nunavut Territory, Canada

Now
-6 °F

Sunny.


Feels Like: -15 °F
Forecast: -13 / -3 °F
Wind: 3 mph from West

Location: Cape Dorset

Current Time: Mar 30, 2015 at 8:41:51 PM

Latest Report: Mar 30, 2015 at 8:00 PM


Visibility: 9 mi

Pressure: 29.75 "Hg

Humidity: 77%

Dew point: -11 °F

Location of Cape DorsetLocation

Historic Weather in Cape Dorset — Graph

°F

Cape Dorset temperature yesterday

Maximum temperature yesterday: -2 °F (at 2:00 PM)
Minimum temperature yesterday: -13 °F (at 5:00 AM)
Average temperature yesterday: -7 °F

Past Weeks' High & Low Weather Summary

 TemperatureHumidityPressure
High23 °F (Mar 15, 10:00 PM)93% (Mar 16, 10:00 AM)30.11 "Hg (Mar 16, 10:00 AM)
Low-18 °F (Mar 24, 3:00 AM)59% (Mar 30, 5:00 PM)28.96 "Hg (Mar 16, 3:00 PM)
Average-3 °F80%29.69 "Hg
* Reported Mar 15 7:00 PM — Mar 30 7:00 PM, Cape Dorset, Weather by CustomWeather, © 2015

Note: Actual official high and low records may vary slightly from our data, if they occured in-between our weather recording intervals... More about our weather records

Advertising

Cape Dorset weather history for previous 24 hours

 ConditionsComfort  
Time TempWeatherWind HumidityBarometerVisibility
7:00 PM
Mon, Mar 30
-6 °FSunny.5 mph77%29.73 "Hg9 mi
6:00 PM-4 °FSunny.6 mph71%29.72 "Hg9 mi
5:00 PM-2 °FPassing clouds.6 mph59%29.71 "Hg15 mi
4:00 PM-2 °FScattered clouds.5 mph65%29.70 "Hg15 mi
3:00 PM-2 °FPassing clouds.3 mph71%29.69 "Hg15 mi
2:00 PM-4 °FPassing clouds.2 mph71%29.68 "Hg15 mi
1:00 PM-4 °FPassing clouds.2 mph65%29.67 "Hg15 mi
12:00 PM-4 °FPartly sunny.3 mph65%29.67 "Hg15 mi
11:00 AM-8 °FBroken clouds.2 mph64%29.66 "Hg15 mi
10:00 AM-9 °FScattered clouds.2 mph70%29.67 "Hg15 mi
9:00 AM-11 °FPassing clouds.3 mph76%29.66 "Hg15 mi
8:00 AM-11 °FPassing clouds.2 mph76%29.66 "Hg15 mi
7:00 AM-11 °FClear.3 mph76%29.65 "Hg9 mi
6:00 AM-11 °FClear.2 mph76%29.65 "Hg9 mi
5:00 AM-9 °FClear.No wind77%29.64 "Hg9 mi
4:00 AM-9 °FPassing clouds.2 mph77%29.64 "Hg9 mi
3:00 AM-9 °FClear.3 mph77%29.65 "Hg9 mi
2:00 AM-9 °FClear.3 mph77%29.65 "Hg9 mi
1:00 AM-9 °FClear.3 mph77%29.65 "Hg9 mi
12:00 AM-8 °FClear.3 mph70%29.66 "Hg9 mi
11:00 PM
Sun, Mar 29
-9 °FClear.3 mph77%29.67 "Hg9 mi
10:00 PM-8 °FClear.5 mph70%29.67 "Hg9 mi
9:00 PM-8 °FClear.7 mph70%29.68 "Hg9 mi
8:00 PM-4 °FSunny.3 mph71%29.67 "Hg9 mi
Weather by CustomWeather, © 2015

See weather overviewHow to use our weather pages